Temp
-13 -13 -14 -14 -14 -14 -14 -14 -14 -14 -14 -15 -15 -15 -16 -16 -16 -16 -16 -17 -17 -17 -17 -17 -18 -18 -18 -18 -18 -18 -18 -18 -17 -17 -16 -16 -16 -16 -15 -15 -14 -13
-14 -14 -15 -15 -15 -15 -15 -14 -14 -15 -15 -15 -16 -16 -16 -16 -16 -16 -17 -17 -18 -18 -18 -18 -18 -18 -18 -19 -19 -19 -19 -18 -18 -18 -17 -17 -17 -16 -16 -15 -15 -14
-14 -15 -15 -15 -15 -15 -15 -15 -15 -15 -16 -16 -17 -17 -17 -17 -17 -18 -18 -18 -19 -19 -19 -19 -19 -19 -19 -19 -19 -19 -19 -19 -19 -18 -18 -18 -17 -17 -17 -16 -16 -16
-15 -16 -16 -16 -16 -16 -15 -15 -16 -16 -16 -17 -17 -17 -18 -18 -19 -19 -19 -19 -19 -19 -20 -20 -20 -20 -20 -20 -20 -20 -20 -19 -19 -19 -19 -18 -18 -18 -18 -17 -17 -17
-16 -16 -16 -16 -16 -16 -16 -16 -16 -16 -17 -17 -18 -18 -19 -19 -19 -19 -20 -20 -20 -20 -20 -20 -20 -20 -20 -20 -20 -20 -20 -20 -20 -19 -19 -19 -19 -19 -18 -18 -18 -18
-16 -17 -17 -17 -17 -17 -17 -16 -17 -17 -17 -18 -19 -19 -19 -19 -20 -20 -20 -20 -20 -20 -21 -21 -21 -21 -21 -21 -21 -21 -20 -20 -20 -20 -20 -20 -20 -19 -19 -19 -19 -19
-17 -17 -17 -17 -17 -17 -17 -17 -17 -18 -18 -19 -19 -20 -20 -20 -20 -20 -20 -21 -21 -21 -21 -21 -21 -21 -21 -21 -21 -21 -21 -21 -21 -21 -21 -20 -20 -20 -20 -20 -20 -19
-17 -18 -18 -18 -18 -18 -18 -18 -18 -19 -19 -19 -20 -20 -20 -20 -20 -21 -21 -21 -21 -21 -21 -21 -21 -22 -22 -22 -22 -22 -21 -21 -21 -21 -21 -21 -21 -21 -20 -20 -20 -20
-18 -18 -18 -18 -18 -18 -18 -18 -19 -19 -20 -20 -20 -20 -20 -21 -21 -21 -21 -21 -21 -22 -22 -22 -22 -22 -22 -22 -22 -22 -22 -22 -22 -22 -22 -21 -21 -21 -21 -21 -21 -20
-18 -18 -18 -19 -19 -19 -19 -19 -19 -20 -20 -20 -20 -21 -21 -21 -21 -22 -22 -22 -22 -22 -22 -22 -22 -22 -23 -23 -23 -23 -22 -22 -22 -22 -22 -22 -22 -22 -22 -21 -21 -21
-19 -19 -19 -19 -19 -19 -19 -20 -20 -20 -20 -21 -21 -21 -21 -22 -22 -22 -22 -22 -22 -23 -23 -23 -23 -23 -23 -23 -23 -23 -23 -23 -23 -23 -23 -23 -22 -22 -22 -22 -22 -22
-19 -19 -19 -19 -20 -20 -20 -20 -21 -21 -21 -21 -21 -22 -22 -22 -22 -22 -23 -23 -23 -23 -23 -23 -23 -23 -23 -23 -23 -23 -23 -23 -23 -23 -23 -23 -23 -23 -22 -22 -22 -22
-20 -20 -20 -20 -20 -20 -21 -21 -21 -21 -22 -22 -22 -22 -23 -23 -23 -23 -23 -23 -24 -24 -24 -24 -24 -24 -24 -24 -24 -24 -24 -24 -24 -24 -23 -23 -23 -22 -22 -21 -21 -21
-20 -20 -20 -21 -21 -21 -21 -21 -22 -22 -22 -22 -23 -23 -23 -23 -24 -24 -24 -24 -24 -24 -24 -24 -25 -25 -24 -24 -24 -24 -24 -24 -24 -23 -23 -23 -22 -21 -21 -20 -20 -20
-21 -21 -21 -21 -21 -22 -22 -22 -22 -22 -23 -23 -23 -24 -24 -24 -24 -24 -25 -25 -25 -25 -25 -25 -25 -25 -25 -25 -25 -24 -24 -23 -22 -22 -21 -21 -21 -20 -20 -20 -19 -19
-21 -21 -21 -22 -22 -22 -22 -23 -23 -23 -23 -24 -24 -24 -25 -25 -25 -25 -25 -25 -25 -25 -25 -25 -25 -25 -25 -25 -23 -22 -21 -21 -20 -20 -20 -19 -19 -19 -19 -19 -19 -19
-22 -22 -22 -22 -23 -23 -23 -23 -24 -24 -24 -24 -25 -25 -25 -25 -25 -25 -25 -25 -26 -26 -26 -26 -26 -26 -25 -24 -22 -21 -20 -19 -19 -19 -19 -19 -19 -19 -19 -19 -19 -19
-22 -22 -23 -23 -23 -23 -24 -24 -24 -24 -25 -25 -25 -25 -25 -26 -26 -26 -26 -26 -26 -26 -26 -26 -26 -26 -25 -23 -22 -20 -19 -19 -19 -19 -19 -19 -19 -19 -19 -19 -19 -19
-23 -23 -23 -23 -24 -24 -24 -24 -25 -25 -25 -25 -25 -26 -26 -26 -26 -26 -26 -26 -26 -26 -26 -26 -26 -26 -25 -23 -22 -20 -19 -19 -19 -19 -19 -19 -19 -18 -18 -18 -18 -18
-23 -23 -24 -24 -24 -24 -25 -25 -25 -25 -26 -26 -26 -26 -26 -26 -26 -26 -26 -26 -26 -26 -26 -26 -26 -26 -24 -23 -21 -20 -19 -19 -19 -19 -18 -18 -18 -18 -18 -18 -18 -18
-23 -24 -24 -24 -24 -25 -25 -25 -26 -26 -26 -26 -26 -26 -26 -27 -27 -27 -27 -27 -27 -27 -27 -26 -26 -25 -24 -22 -21 -20 -19 -19 -19 -18 -18 -18 -18 -18 -18 -18 -18 -18
-24 -24 -24 -25 -25 -25 -25 -26 -26 -26 -26 -26 -27 -27 -27 -27 -27 -27 -27 -27 -27 -27 -27 -26 -26 -25 -24 -22 -21 -21 -20 -19 -19 -19 -18 -18 -18 -18 -17 -17 -17 -17
-24 -24 -25 -25 -25 -26 -26 -26 -26 -27 -27 -27 -27 -27 -27 -27 -27 -27 -27 -27 -27 -27 -27 -26 -26 -25 -24 -22 -21 -21 -20 -19 -19 -18 -18 -18 -17 -17 -17 -16 -16 -16
-24 -25 -25 -25 -26 -26 -26 -27 -27 -27 -27 -27 -27 -27 -27 -27 -27 -27 -27 -27 -27 -27 -26 -26 -26 -25 -24 -22 -21 -21 -20 -19 -18 -18 -17 -17 -17 -16 -16 -16 -16 -15
-25 -25 -25 -26 -26 -26 -27 -27 -27 -27 -27 -27 -27 -27 -28 -28 -28 -28 -27 -27 -27 -26 -26 -26 -25 -24 -24 -23 -21 -20 -19 -18 -18 -18 -17 -17 -17 -16 -16 -15 -15 -15
-25 -25 -26 -26 -26 -27 -27 -27 -27 -28 -27 -27 -28 -28 -28 -28 -28 -28 -27 -27 -27 -26 -26 -25 -25 -24 -23 -22 -21 -20 -19 -18 -18 -18 -17 -16 -16 -16 -15 -15 -14 -14
Height
862 860 858 856 854 852 849 847 845 843 841 840 838 836 834 832 830 827 825 823 821 819 817 815 813 811 809 807 805 803 801 800 798 796 795 793 791 790 789 788 787 786
862 860 858 856 853 851 849 847 844 842 841 839 837 835 832 830 827 825 823 820 818 816 814 812 810 808 806 804 802 800 798 796 794 793 791 789 788 786 785 784 783 782
862 859 857 854 852 850 847 846 844 841 840 837 836 833 831 828 825 823 821 818 816 813 811 809 807 805 803 801 799 797 795 793 791 790 788 786 785 783 781 780 778 778
860 858 855 853 851 849 846 844 842 840 838 836 834 832 829 827 824 821 819 816 814 811 809 807 804 802 800 798 796 794 792 790 788 786 784 782 782 780 778 777 775 773
859 856 854 852 850 847 845 843 841 839 837 834 832 830 827 824 822 819 817 814 812 809 806 804 801 799 797 795 793 791 788 786 785 783 781 778 778 777 775 774 771 770
857 855 853 851 848 846 844 842 840 837 835 832 830 828 825 822 820 817 814 812 810 807 804 802 799 797 795 793 790 788 786 783 781 780 778 775 773 772 771 770 768 766
855 853 851 849 847 844 842 840 838 835 833 831 828 826 823 820 818 815 812 810 807 805 802 800 797 795 792 790 787 785 783 781 778 777 774 772 770 768 767 766 764 762
853 851 849 847 844 842 840 838 836 833 831 828 826 823 821 818 815 813 810 808 805 802 800 797 794 792 789 787 784 781 779 777 775 773 771 768 766 764 763 762 760 757
852 850 847 845 843 840 838 836 834 832 829 826 823 821 818 816 813 810 807 805 802 799 796 794 791 788 786 784 781 778 775 773 771 770 767 764 763 760 759 759 757 754
850 848 845 843 841 839 837 834 832 829 827 824 821 818 815 813 810 807 804 801 798 795 793 790 787 785 782 780 778 775 772 769 767 765 763 760 758 756 755 754 753 749
849 846 844 842 839 837 835 832 830 827 824 821 818 815 812 809 807 804 801 798 795 792 789 786 784 781 778 776 773 771 768 765 763 760 758 756 753 752 751 750 748 745
847 845 842 840 837 835 832 830 827 824 821 818 815 812 809 806 803 800 797 794 791 788 785 782 780 777 774 771 768 766 763 760 758 755 752 750 748 746 745 744 742 739
845 843 841 838 835 833 830 827 825 822 819 816 812 809 806 802 799 796 793 790 787 784 781 778 775 772 770 767 764 761 758 755 752 750 747 744 742 739 738 736 735 733
844 841 839 836 834 831 828 825 822 819 816 812 809 806 803 799 796 792 789 786 783 780 777 774 771 768 765 762 758 755 752 749 746 744 740 737 734 732 730 729 728 727
842 839 837 834 831 828 825 822 819 815 812 809 806 802 799 796 792 789 785 781 778 775 772 770 766 763 760 757 753 749 746 742 739 736 733 730 727 725 723 721 720 719
840 837 834 831 828 825 822 819 815 812 808 805 801 798 795 792 788 784 781 777 773 770 767 764 761 757 754 751 748 745 741 737 733 730 728 725 722 719 717 715 714 712
837 835 832 829 826 822 819 816 812 809 805 801 797 794 790 787 783 780 776 773 770 766 761 758 755 752 749 745 741 739 735 732 729 726 723 721 718 715 712 710 708 706
835 832 829 826 823 819 816 813 809 805 801 797 793 790 786 783 779 776 772 769 766 762 757 752 749 746 744 739 735 731 727 725 723 720 717 714 711 709 705 703 700 697
832 829 826 822 819 816 812 809 805 801 798 794 790 786 783 779 775 772 768 765 762 758 752 747 743 741 738 733 729 724 720 718 716 714 711 707 704 701 697 695 692 689
830 827 823 819 816 812 809 805 802 797 793 790 786 783 779 775 771 768 764 761 759 755 749 743 738 736 732 727 723 718 714 712 710 708 704 700 697 693 690 687 683 680
827 824 820 816 812 809 805 802 798 794 790 786 783 779 775 771 767 763 760 756 754 751 745 738 734 732 728 722 717 713 709 706 705 702 697 693 689 686 682 678 675 672
825 821 817 813 809 806 802 798 794 791 787 783 779 775 771 767 763 760 756 752 749 746 741 734 728 727 723 716 712 708 704 701 699 694 690 686 681 677 674 669 666 663
823 819 815 811 807 803 799 796 792 787 783 780 776 771 767 763 759 755 752 749 745 741 737 730 723 720 717 711 706 703 699 696 693 688 683 679 673 669 665 660 655 652
820 817 813 809 805 802 797 794 790 785 781 778 774 769 764 760 756 751 747 745 741 737 733 728 720 715 712 706 700 697 694 691 687 681 676 671 665 660 655 650 645 640
818 814 811 807 803 799 795 792 787 783 779 776 772 768 762 757 753 748 743 740 737 733 730 725 718 712 707 702 696 691 688 685 681 676 670 663 656 650 644 638 633 629
815 811 807 804 800 796 792 788 785 781 776 772 769 765 761 755 750 746 740 736 733 729 726 722 717 710 704 699 694 687 682 679 676 670 663 655 647 641 634 628 622 620
Wind_Speed
28 29 26 22 20 18 19 18 16 15 16 19 20 22 24 28 31 34 33 31 29 27 23 23 25 26 27 26 24 22 20 21 21 22 22 21 21 21 20 20 19 19
27 27 24 21 19 19 19 17 15 16 18 20 23 25 28 33 35 35 33 31 29 27 26 26 26 28 29 27 25 23 22 21 21 21 21 22 22 21 21 20 20 20
23 25 23 20 20 21 19 16 15 18 20 22 25 28 31 34 34 32 31 30 30 29 28 29 30 31 29 27 25 24 23 22 22 22 21 22 21 20 22 22 22 22
21 23 21 19 20 21 19 17 18 20 22 25 28 30 32 31 30 28 28 28 27 27 28 29 31 30 28 27 26 24 23 22 22 21 21 21 20 20 23 23 23 24
21 21 20 19 20 21 20 19 21 23 25 29 32 31 30 28 27 26 26 27 25 25 26 27 28 28 27 26 24 22 22 22 21 20 21 23 21 21 22 22 22 24
22 21 20 19 20 21 21 19 22 25 28 30 30 28 27 26 25 26 26 25 24 24 26 26 26 26 25 24 23 23 22 22 22 21 23 24 23 22 22 21 22 24
23 22 21 20 21 22 20 20 22 25 27 28 26 25 25 25 25 26 25 25 25 25 25 26 26 25 24 23 23 23 22 23 24 23 24 25 24 24 23 22 23 25
24 23 22 22 22 22 20 20 21 25 26 26 26 25 25 25 26 26 25 25 26 26 26 27 26 25 24 22 22 23 24 24 24 24 25 25 25 25 24 23 24 26
24 23 23 23 23 21 21 21 23 25 26 25 27 27 26 26 26 25 25 26 26 27 27 26 25 24 22 21 22 23 24 24 24 24 25 26 26 27 26 25 25 27
24 24 24 23 22 21 22 23 25 27 27 27 28 28 28 27 26 25 25 26 26 27 26 24 24 23 22 22 22 23 24 24 24 24 25 26 28 28 27 26 26 28
23 23 23 22 22 23 24 26 27 28 28 28 28 29 29 27 26 26 25 25 26 25 25 25 24 24 24 24 23 23 24 24 25 25 26 27 27 27 27 27 27 30
22 22 22 23 23 24 25 27 27 27 28 28 28 29 29 28 28 27 27 27 28 27 26 26 26 25 24 24 23 24 25 26 28 28 27 27 26 27 30 34 36 38
22 22 23 23 23 25 27 27 27 27 28 28 27 27 28 29 29 30 29 29 29 28 27 27 27 27 26 26 26 27 29 31 32 33 32 31 32 36 40 42 43 43
22 23 23 23 25 27 27 27 28 28 27 27 28 28 29 30 30 32 31 30 30 29 29 29 29 29 29 29 31 34 35 37 38 39 39 40 42 46 47 46 44 42
23 24 24 25 27 28 28 28 28 28 28 29 30 31 31 31 32 32 32 32 33 33 32 32 32 33 33 33 35 37 39 41 43 43 43 45 46 45 45 42 39 37
24 25 25 27 28 28 28 28 28 29 31 33 34 35 35 35 36 35 34 36 37 38 38 37 38 39 38 37 37 37 38 39 40 39 38 38 37 36 35 34 32 33
25 26 27 27 28 27 27 29 31 32 35 37 39 40 39 39 38 38 38 39 39 41 41 41 43 41 38 39 39 38 39 39 38 37 36 35 35 35 35 35 35 39
26 27 27 27 28 29 31 34 35 36 38 39 40 40 40 39 38 38 40 40 39 40 42 44 45 42 39 40 41 40 41 42 41 39 37 36 38 40 41 41 41 44
27 27 28 30 32 35 37 38 38 39 39 39 39 39 38 37 38 38 39 40 39 39 42 45 46 44 41 40 41 42 42 43 43 41 39 38 39 41 43 45 44 44
27 28 30 35 38 39 39 39 38 39 40 39 38 38 37 37 39 39 39 39 38 39 42 45 46 44 41 40 42 43 43 44 43 40 38 38 37 40 43 44 45 44
28 31 34 38 40 40 39 39 38 38 39 39 38 38 38 38 39 39 39 40 40 39 41 45 45 42 40 41 43 43 44 45 42 37 36 37 39 42 43 43 44 44
30 34 36 38 40 40 39 39 39 39 38 39 39 39 38 38 39 40 41 41 41 40 40 44 46 43 41 43 44 44 45 43 38 36 36 40 44 46 44 44 45 45
33 34 36 38 39 38 38 39 40 40 40 39 38 39 38 39 41 43 42 41 41 40 40 43 46 45 42 44 45 45 44 41 37 37 38 40 44 46 45 46 47 48
32 32 34 36 37 37 37 39 39 39 40 38 37 38 40 41 43 44 43 42 41 41 40 41 44 45 43 45 47 46 44 42 39 39 40 40 44 49 49 49 48 48
32 32 33 35 36 36 36 37 37 38 38 37 36 37 39 41 43 43 43 42 41 41 40 39 41 45 45 45 47 47 45 43 40 37 38 40 42 44 48 51 51 47
33 34 35 35 35 36 36 35 35 35 37 37 37 37 38 40 41 40 40 42 42 40 39 38 39 42 45 44 44 45 45 45 43 39 38 41 44 43 42 43 44 40
Wind_Direction
335 336 335 330 327 324 324 325 323 323 325 327 329 328 328 328 326 326 326 324 324 324 320 317 316 318 319 317 315 311 305 302 302 302 300 297 296 295 292 290 289 286
332 334 334 328 325 324 324 322 320 321 324 326 327 327 325 325 324 324 324 323 322 321 319 317 316 318 318 316 313 308 303 300 297 298 297 294 294 293 290 290 290 288
329 333 332 328 326 327 325 320 319 321 323 325 326 325 324 323 322 322 322 321 320 318 318 318 317 318 317 314 312 307 302 299 296 296 294 290 290 288 288 290 289 288
329 331 329 325 325 327 324 317 317 320 322 323 323 323 322 321 320 319 318 318 316 315 315 315 315 315 313 312 310 304 300 296 294 294 291 287 286 284 286 288 287 286
329 329 327 323 322 325 322 314 314 318 319 319 320 320 320 319 318 316 315 315 313 310 310 310 310 310 309 308 305 300 296 294 292 292 289 287 285 284 285 285 284 284
327 326 325 322 320 322 319 312 312 316 317 318 318 318 317 315 314 312 312 312 309 307 308 307 306 306 304 302 300 296 293 292 291 291 288 287 286 285 283 282 281 281
326 325 324 321 319 319 317 313 313 315 316 317 316 314 314 313 311 310 309 308 307 305 304 303 302 300 299 297 295 292 290 289 290 289 286 285 286 284 282 282 281 281
325 324 323 321 320 318 315 314 314 315 316 316 314 313 312 311 309 307 307 306 305 303 301 301 298 296 293 291 288 287 287 287 287 286 285 283 283 282 281 282 282 281
324 323 322 321 320 317 316 316 315 316 316 314 313 312 310 310 308 305 304 304 303 302 301 300 296 294 291 287 284 284 284 283 282 282 281 280 279 279 279 280 280 280
322 322 321 320 319 317 316 317 316 316 315 313 313 312 310 309 307 304 303 303 303 302 300 297 294 293 290 286 284 283 282 282 281 279 277 276 276 277 278 278 277 277
319 320 320 319 318 316 315 316 316 315 314 313 312 312 310 309 308 306 305 303 302 301 298 295 294 293 290 287 284 282 281 280 279 277 275 275 275 274 275 275 274 274
318 319 318 318 316 315 315 315 315 314 313 312 312 311 310 309 307 306 305 304 303 300 297 296 295 292 289 286 284 283 282 280 279 278 276 275 273 273 277 279 279 278
318 318 318 316 315 314 314 313 313 313 312 312 311 309 308 307 306 305 304 303 302 300 298 297 295 292 288 286 285 283 281 280 280 279 278 278 279 281 283 284 283 280
318 318 317 315 315 314 314 313 313 312 311 311 310 308 306 305 305 304 303 301 299 298 298 296 294 292 289 287 286 286 284 283 282 282 281 281 283 284 285 285 283 278
318 318 316 316 316 315 314 315 314 313 312 311 309 308 306 305 305 304 302 301 300 300 299 298 295 293 291 289 287 286 287 286 285 283 281 280 280 281 280 280 279 276
318 317 316 316 317 316 315 315 314 313 313 312 311 310 309 309 308 306 304 303 304 304 303 301 299 297 295 292 288 287 286 285 284 282 280 278 276 276 276 276 275 275
317 317 317 316 316 316 315 314 314 314 313 313 313 313 312 312 310 308 307 307 306 306 305 303 302 300 297 294 292 290 287 284 283 281 279 277 275 275 275 274 273 274
317 317 317 316 316 317 316 316 316 315 314 314 313 313 314 312 310 309 309 308 308 307 305 304 303 302 299 296 294 292 290 288 287 285 282 280 278 277 277 277 275 275
318 317 317 317 318 318 318 318 317 316 315 315 314 314 313 311 310 309 309 309 308 307 306 304 304 304 301 298 295 294 295 295 293 290 287 285 284 281 279 279 276 273
318 317 318 318 319 320 319 318 317 316 316 315 315 314 313 311 310 309 309 309 309 308 306 304 305 305 302 298 296 297 298 299 298 295 291 288 286 283 280 278 276 272
319 319 319 319 320 320 319 318 317 316 316 316 316 314 312 312 311 310 310 310 310 309 307 305 305 306 302 300 300 300 302 303 301 297 292 288 288 287 283 279 276 274
320 319 319 319 320 320 319 318 318 317 316 317 316 314 313 312 312 311 311 311 311 311 308 305 307 308 305 305 306 304 304 305 301 296 293 291 291 291 286 282 279 275
319 318 318 318 318 318 317 317 318 316 316 317 316 315 313 312 313 312 312 312 311 311 309 307 309 311 309 308 310 307 305 304 299 295 293 290 291 292 287 283 281 277
317 317 316 316 316 316 315 316 316 315 316 316 315 313 312 313 314 313 312 313 312 312 312 309 309 312 312 311 313 311 307 305 301 297 294 290 290 292 289 285 281 278
318 317 316 316 316 315 315 315 315 315 315 315 314 313 312 313 314 313 312 314 314 314 314 311 310 313 315 314 314 313 309 307 305 300 294 289 286 286 287 287 284 279
319 318 318 317 316 316 316 316 315 315 316 316 314 314 313 313 314 313 311 313 316 315 315 314 313 314 316 314 312 312 311 310 309 302 293 289 287 285 284 285 285 281